DELTA 1 R/B

Last updated on Sun Mar 15 2026 00:02:16 GMT+0000 (Coordinated Universal Time)

1 20323U 89089B 26073.58709952 .00000416 00000+0 11106-3 0 9999 2 20323 97.0702 280.2468 0070649 106.7878 254.1086 14.50667585896444
UTC large
Height (km)
Speed (km/s)
/
Latitude / Longitude
Inclination (degrees)
Orbital Period (minutes)
Azimuth
Elevation
Range (km)
Doppler Factor

Next 0 passes for location: London (51.5072 / 0.1276)

Sorry there are no passes over London.